📊 Raw Sensor Data

Showing records 50326 to 50350 of 85,132 total

ID Distance (ft) Battery V Battery A Int Temp (°F) Int Humid (%) Ext Temp (°F) Solar V RSSI SNR Time Stamp
34819 -- 3.98 -5 46 41 47 0.00 -80 6 03/12/2025 11:00 PM
34818 -- 3.98 -5 46 42 47 0.00 -80 7 03/12/2025 10:45 PM
34817 -- 4.03 -5 46 42 47 0.00 -80 7 03/12/2025 10:30 PM
34816 -- 3.98 -5 45 43 47 0.00 -80 7 03/12/2025 10:15 PM
34815 -- 3.98 -5 45 42 47 0.00 -80 7 03/12/2025 10:00 PM
34814 -- 3.98 -5 45 42 46 0.00 -81 7 03/12/2025 09:45 PM
34813 -- 4.03 -5 45 42 46 0.10 -81 8 03/12/2025 09:30 PM
34812 -- 3.98 -5 46 42 46 0.00 -80 8 03/12/2025 09:15 PM
34811 -- 3.98 -5 46 42 47 0.10 -81 7 03/12/2025 09:00 PM
34810 -- 3.98 -5 47 42 47 0.00 -81 7 03/12/2025 08:30 PM
34809 -- 4.04 -5 47 42 47 0.00 -82 7 03/12/2025 08:15 PM
34808 -- 3.99 -5 47 42 48 0.00 -81 6 03/12/2025 08:00 PM
34807 -- 3.99 -5 47 42 48 0.00 -81 7 03/12/2025 07:45 PM
34806 -- 4.04 -5 47 42 48 0.00 -81 8 03/12/2025 07:30 PM
34805 -- 3.99 -5 47 42 48 0.50 -80 7 03/12/2025 07:15 PM
34804 15.4 3.98 -9 47 42 48 3.90 -81 6 03/12/2025 07:00 PM
34803 -- 3.98 -10 47 42 48 3.30 -80 8 03/12/2025 06:45 PM
34802 -- 4.05 -5 47 42 48 4.10 -80 7 03/12/2025 06:30 PM
34801 15.3 4.00 0 47 42 47 4.50 -80 7 03/12/2025 06:15 PM
34800 -- 4.00 0 47 43 47 4.50 -78 8 03/12/2025 06:00 PM
34799 -- 4.06 0 47 43 47 4.50 -79 8 03/12/2025 05:45 PM
34798 -- 4.02 0 47 43 47 4.50 -79 7 03/12/2025 05:31 PM
34797 -- 4.08 0 47 43 48 4.50 -78 8 03/12/2025 05:15 PM
34796 -- 4.07 5 47 43 48 4.50 -80 8 03/12/2025 05:00 PM
34795 -- 4.10 -6 48 43 48 4.50 -78 8 03/12/2025 04:45 PM